Weather in Kister

Russia / Bryansk Oblast     52°24′20″N   33°06′37″E
temp.,
°C
wind,
m/s
gust,
m/s
humid.,
%
clouds,
%
prec.,
mm/h
press.,
hPa
HPBL,
m
7 may, fri
fri700:00+6wsw347699 0.0 101260
03:00+4w22795 0.0 101319
06:00+4sw22805 0.0 101226
09:00+10ssw46625 0.0 1013494
12:00+14ssw5745100 0.0 10121839
15:00+15ssw7949100 0.0 10112308
18:00+13s71060100 0.1 10091357
21:00+11s91680100 0.3 1008993
8 may, sat
sat800:00+10s61392100 1.0 1007558
03:00+10s3698100 5.1 1005272
06:00+9wsw2596100 3.7 1004187
09:00+10w3493100 5.9 1004346
12:00+12wsw347960 1.0 1004654
15:00+8w91191100 2.4 1005737
18:00+5wnw71195100 1.8 10081073
21:00+5wnw81389100 5.0 10101074
9 may, sun
sun900:00+4wnw7148781 0.3 1013667
03:00+3wnw7168599 0.3 1015598
06:00+2nw6148640 0.0 1017487
09:00+6nw811705 0.0 1019924
12:00+10nnw810525 0.0 10211779
15:00+12nnw7104521 0.0 10222339
18:00+11nnw58555 0.0 10231536
21:00+6nw35705 0.0 102665
10 may, mon
mon1000:00+5nw347014 0.0 102747
03:00+4nnw33695 0.0 102826
06:00+4n22735 0.0 102925
09:00+10n23600 0.0 1030373
12:00+14nne34475 0.0 10291397
15:00+15nne45450 0.0 10281529
18:00+14nne47570 0.0 1027738
21:00+9ne46760 0.0 102880
11 may, tue
tue1100:00+7ne36760 0.0 102878
03:00+5nne49810 0.0 1028151
06:00+5ne412800 0.0 1027234
09:00+12ne69660 0.0 1026476
12:00+17ene68610 0.0 1025746
15:00+19ene68610 0.0 10241059
18:00+19ene697252 0.0 1023987
21:00+14e398685 0.1 1024269